Regional Weather Roundup
Issued by NWS Sioux Falls, SD

Home | Current Version | Previous Version | Graphics & Text | Print | Product List | Glossary On
Versions: 1 2 3 4 5 6 7 8 9 10 11 12 13 14 15 16 17 18 19 20 21 22 23 24 25 26 27 28 29 30 31 32 33 34 35 36 37 38 39 40 41 42 43 44 45 46 47 48 49 50
000
ASUS43 KFSD 301102
RWRFSD

WEATHER ROUNDUP FOR SE SOUTH DAKOTA/SW MINNESOTA/NW IOWA
NATIONAL WEATHER SERVICE SIOUX FALLS SD
600 AM CDT SUN AUG 30 2015

NOTE: "FAIR" INDICATES FEW OR NO CLOUDS BELOW 12,000 FEET WITH NO
SIGNIFICANT WEATHER AND OR OBSTRUCTIONS TO VISIBILITY.


SDZ038>040-050-052>070-301200-
SOUTHEAST SOUTH DAKOTA

CITY           SKY/WX    TMP DP  RH WIND       PRES   REMARKS
BROOKINGS      CLOUDY    63  57  82 S10       29.97F
CHAMBERLAIN    CLEAR     66  61  82 S9        29.89F
HURON          CLEAR     64  62  93 S10       29.88F
MADISON        CLOUDY    59  59 100 S12       29.97S FOG
MITCHELL       CLEAR     63  62  97 S7        29.92S
SIOUX FALLS    CLOUDY    62  60  93 S13       29.99R FOG
WINNER         FAIR      70  57  63 S18       29.90S
YANKTON        CLOUDY    64  61  88 S7        29.98R
$$

MNZ071-072-080-081-089-090-097-098-301200-
SOUTHWEST MINNESOTA

CITY           SKY/WX    TMP DP  RH WIND       PRES   REMARKS
FAIRMONT       CLOUDY    63  55  77 S12       30.02F
JACKSON        CLOUDY    61  61 100 S10       30.03S FOG
LUVERNE        CLOUDY    63  61  94 S7        30.01R FOG
MARSHALL       CLEAR     61  55  82 S9        29.96S
MONTEVIDEO     CLEAR     61  61 100 S7        29.95S
PIPESTONE      CLOUDY    63  61  94 S8G16     29.99S FOG
REDWOOD FALLS  CLOUDY    62  60  93 S9        29.97S
TRACY          PTCLDY    62  61  96 S12G17    29.97S
WINDOM         CLOUDY    61  59  94 S13       30.00F
WORTHINGTON    CLOUDY    61  57  88 S14       30.01S
$$

IAZ001>003-012>014-020>022-031-032-NEZ013-014-SDZ071-301200-
NORTHWEST IOWA

CITY           SKY/WX    TMP DP  RH WIND       PRES   REMARKS
DENISON        CLOUDY    63  61  94 CALM      30.01S
ESTHERVILLE    CLOUDY    60  59  96 S12       30.03S
SIOUX CITY     NOT AVBL
SPENCER        CLOUDY    63  60  90 S8        30.03S
$$

ABBREVIATIONS USED IN REMARKS
   TC - TEMPERATURE IN CELSIUS
  WCI - WIND CHILL INDEX
   HX - HEAT INDEX
  VSB - VISIBILITY




USA.gov is the U.S. government's official web portal to all federal, state and local government web resources and services.